EW3205 Weather Reports


time (UTC)temp
F
wind
direction
speed
knots
gust
knots
rain 1hr
in
rain 24hr
in
rain mn
in
humidity
%
barometer
mb
20260510151521 53 229 4.3 13.0 0.00 0.00 0.00 60 1010.1
20260510150027 53 233 4.3 12.2 0.00 0.00 0.00 62 1010.3
20260510144521 54 219 4.3 12.2 0.00 0.00 0.00 62 1010.3
20260510143020 54 238 3.5 13.0 0.00 0.00 0.00 61 1010.5
20260510141525 54 251 3.5 9.6 0.00 0.00 0.00 62 1010.5
20260510140014 52 238 3.5 9.6 0.00 0.00 0.00 67 1010.7
20260510134513 53 290 2.6 12.2 0.00 0.00 0.00 66 1010.8
20260510133013 53 248 5.2 13.9 0.00 0.00 0.00 66 1010.8
20260510131511 53 260 8.7 13.9 0.00 0.00 0.00 67 1010.9
20260510130011 51 249 4.3 9.6 0.00 0.00 0.00 72 1011.1
20260510124510 52 241 6.1 13.9 0.00 0.00 0.00 67 1011.1
20260510123009 54 231 3.5 14.8 0.00 0.00 0.00 65 1011.3
20260510121507 56 237 2.6 13.9 0.00 0.00 0.00 62 1011.4
20260510120005 56 277 3.5 12.2 0.00 0.00 0.00 62 1011.6
20260510114504 55 242 3.5 13.9 0.00 0.00 0.00 65 1011.7
20260510113002 54 236 5.2 12.2 0.00 0.00 0.00 65 1011.8
20260510111501 55 254 3.5 10.4 0.00 0.00 0.00 66 1011.9
20260510110100 54 290 1.7 11.3 0.00 0.00 0.00 68 1012.0
20260510104559 54 283 2.6 8.7 0.00 0.00 0.00 67 1012.0
20260510103108 54 253 2.6 9.6 0.00 0.00 0.00 67 1012.2
20260510101607 53 256 2.6 8.7 0.00 0.00 0.00 68 1012.3
20260510100100 53 215 7.0 12.2 0.00 0.00 0.00 68 1012.5
20260510094555 53 241 6.1 12.2 0.00 0.00 0.00 61 1012.6
20260510093054 55 225 4.3 13.0 0.00 0.00 0.00 62 1012.6
20260510091553 55 233 6.1 13.9 0.00 0.00 0.00 63 1012.7
20260510090054 57 161 8.7 13.9 0.00 0.00 0.00 57 1012.7
20260510084550 57 216 6.1 14.8 0.00 0.00 0.00 60 1012.6
20260510083048 56 161 7.0 13.9 0.00 0.00 0.00 65 1012.6
20260510081554 54 194 7.0 10.4 0.00 0.00 0.00 68 1012.7
20260510080043 55 159 7.8 13.0 0.00 0.00 0.00 69 1012.8
20260510074541 55 188 7.8 13.9 0.00 0.00 0.00 67 1012.8
20260510073037 56 221 3.5 11.3 0.00 0.00 0.00 67 1012.9
20260510071534 55 201 6.1 9.6 0.00 0.00 0.00 67 1013.0
20260510070034 54 181 5.2 11.3 0.00 0.00 0.00 70 1013.3
20260510064526 53 199 5.2 8.7 0.00 0.00 0.00 66 1013.4
20260510063023 53 212 4.3 8.7 0.00 0.00 0.00 75 1013.6
20260510061525 51 216 3.5 8.7 0.00 0.00 0.00 81 1013.7
20260510060015 50 134 4.3 7.8 0.00 0.00 0.00 81 1013.9
20260510054513 49 168 3.5 7.8 0.00 0.00 0.00 81 1014.0
20260510053009 48 148 0.9 5.2 0.00 0.00 0.00 82 1014.2
20260510051516 47 123 1.7 5.2 0.00 0.00 0.00 82 1014.3
20260510050004 46 113 1.7 4.3 0.00 0.00 0.00 84 1014.5
20260510044500 45 213 0.9 4.3 0.00 0.00 0.00 86 1014.6
20260510043058 45 157 0.9 3.5 0.00 0.00 0.00 86 1014.8
20260510041629 44 122 0.0 2.6 0.00 0.00 0.00 87 1015.0
20260510040053 42 145 1.7 3.5 0.00 0.00 0.00 90 1015.1
20260510034556 41 132 0.0 1.7 0.00 0.00 0.00 90 1015.2
20260510033051 41 129 0.0 1.7 0.00 0.00 0.00 90 1015.5
20260510031552 41 173 0.0 1.7 0.00 0.00 0.00 90 1015.7
20260510030043 41 163 0.0 1.7 0.00 0.00 0.00 90 1015.8
20260510024555 39 150 0.0 1.7 0.00 0.00 0.00 91 1016.1
20260510023038 39 206 0.0 0.9 0.00 0.00 0.00 90 1016.3
20260510021538 39 206 0.0 0.9 0.00 0.00 0.00 90 1016.4
20260510020037 39 216 0.0 1.7 0.00 0.00 0.00 89 1016.5
20260510014536 39 223 0.0 0.0 0.00 0.00 0.00 90 1016.5
20260510013032 39 223 0.0 0.0 0.00 0.00 0.00 90 1016.7
20260510011531 39 223 0.0 0.0 0.00 0.00 0.00 90 1016.9
20260510010029 39 223 0.0 0.0 0.00 0.00 0.00 90 1017.2
20260510004528 39 223 0.0 0.0 0.00 0.00 0.00 89 1017.4
20260510003028 39 223 0.0 0.0 0.00 0.00 0.00 89 1017.6
20260510001524 39 223 0.0 0.9 0.00 0.00 0.00 88 1017.8
20260510000026 39 223 0.0 0.0 0.00 0.00 0.00 88 1017.9
20260509234522 39 229 0.0 0.9 0.00 0.00 0.00 88 1018.1
20260509233020 39 229 0.0 0.0 0.00 0.00 0.00 87 1018.1
20260509231519 39 229 0.0 0.0 0.00 0.00 0.00 87 1018.2
20260509230016 39 229 0.0 0.0 0.00 0.00 0.00 85 1018.4
20260509224513 39 229 0.0 1.7 0.00 0.00 0.00 84 1018.6
20260509223017 39 254 0.0 0.9 0.00 0.00 0.00 84 1018.8
20260509221508 40 254 0.0 0.0 0.00 0.00 0.00 84 1018.7
20260509220006 41 254 0.0 0.9 0.00 0.00 0.00 83 1019.0
20260509214504 41 254 0.0 1.7 0.00 0.00 0.00 82 1019.1
20260509213003 41 270 0.0 1.7 0.00 0.00 0.00 82 1019.1
20260509211504 42 270 0.0 0.0 0.00 0.00 0.00 79 1019.2
20260509210002 42 270 0.0 0.0 0.00 0.00 0.00 79 1019.1
20260509204501 43 270 0.0 0.0 0.00 0.00 0.00 78 1019.2
20260509203100 44 270 0.0 0.0 0.00 0.00 0.00 77 1019.2
20260509201600 44 270 0.0 0.0 0.00 0.00 0.00 76 1019.2
20260509200100 45 270 0.0 0.0 0.00 0.00 0.00 76 1019.2
20260509194559 46 270 0.0 0.0 0.00 0.00 0.00 73 1019.3
20260509193058 47 270 0.0 0.0 0.00 0.00 0.00 71 1019.3
20260509191557 48 270 0.0 0.0 0.00 0.00 0.00 70 1019.4
20260509190057 49 270 0.0 0.0 0.00 0.00 0.00 68 1019.4
20260509184556 51 326 0.0 1.7 0.00 0.00 0.00 64 1019.5
20260509183055 52 326 0.0 0.9 0.00 0.00 0.00 61 1019.7
20260509181555 52 265 0.0 2.6 0.00 0.00 0.00 60 1019.6
20260509180055 53 342 0.0 2.6 0.00 0.00 0.00 55 1019.6
20260509174553 54 344 0.0 3.5 0.00 0.00 0.00 48 1019.7
20260509173116 55 251 0.9 2.6 0.00 0.00 0.00 47 1019.8
20260509171550 56 278 0.0 4.3 0.00 0.00 0.00 49 1019.9
20260509170056 56 347 0.9 3.5 0.00 0.00 0.00 48 1019.9
20260509164556 57 250 0.9 5.2 0.00 0.00 0.00 50 1020.1
20260509163048 57 334 0.9 4.3 0.00 0.00 0.00 53 1020.3
20260509161545 57 247 1.7 7.8 0.00 0.00 0.00 49 1020.5
20260509160047 58 294 0.9 5.2 0.00 0.00 0.00 45 1020.6
20260509154543 59 284 0.9 4.3 0.00 0.00 0.00 46 1020.7
20260509153042 59 327 2.6 7.0 0.00 0.00 0.00 42 1020.9